Tracking 20232 objects as of 18-Jan-2020
HD Live streaming from Space Station
objects crossing your sky now

COSMOS 1974

Track COSMOS 1974 now!
COSMOS 1974 is classified as:


NORAD ID: 19554
Int'l Code: 1988-092A
Perigee: 6,611.4 km
Apogee: 33,783.3 km
Inclination: 69.9 °
Period: 718.3 minutes
Semi major axis: 26568 km
RCS: 16.1296 m2 (large)
Launch date: October 3, 1988
Source: Commonwealth of Independent States (former USSR) (CIS)
Launch site: PLESETSK MISSILE AND SPACE COMPLEX (PKMTR)
aabbcc
Your satellite tracking list
Your tracking list is empty




NASA's NSSDC Master Catalog

Two Line Element Set (TLE):
1 19554U 88092A   20018.13896328 -.00000656 +00000-0 +00000-0 0  9990
2 19554 069.8725 272.8182 5113576 127.2288 008.1837 02.00472872229160
Source of the keplerian elements: AFSPC